Powrót do katalogu

SL-12 R/B(2)

AktywnyMEO
NORAD 19754·ROCKET BODY·🇷🇺 Russia

Wystrzelony Jan 10, 1989 z Baikonur Cosmodrome

Loading…

Następne Przeloty (najbliższe 24 godziny)

TLE

ŚwieżeSource: Space-Track

Epoka: Sep 13, 2026, 22:04 UTC

1 19754U 89001F   26256.91954941 -.00000013  00000-0  00000+0 0  9991
2 19754  65.0246  67.7634 0015591 234.3713 303.3174  2.13421282293592

Śledź SL-12 R/B(2) w czasie rzeczywistym z AllMySat

Download on the App Store